Location: Hac?musa Deresi
(39.1694°N, 32.2508°E)
Time: 14:54:10
(UTC+00:00)

Feng Yun 1-1 Rocket - Pass Details

Date: 22 April 2026
Orbit: 829 x 933 km, 99.0° (Epoch: 11 May)

Event Time Altitude Azimuth Distance (km) Brightness Sun altitude
Exits shadow 18:17:05 16° 176° (S) 2,112 5.9 -18.6°
Maximum altitude 18:21:35 68° 257° (WSW) 911 4.5 -19.3°
Drops below altitude 10° 18:27:00 10° 341° (NNW) 2,453 7.4 -20.2°
Sets 18:29:22 0° 344° (NNW) 3,384 8.2 -20.5°
